CW0566 Weather Reports


Display with metric or nautical units.
time (UTC)temp
F
wind
direction
speed
MPH
gust
MPH
rain 1hr
in
rain 24hr
in
rain mn
in
humidity
%
barometer
mb
20260502151517 56 0.0 1.0 0.00 0.00 0.00 67 1012.8
20260502150518 56 0.0 0.0 0.00 0.00 0.00 68 1012.8
20260502130516 55 0.0 0.0 0.00 0.00 0.00 72 1012.7
20260502123517 54 0.0 0.0 0.00 0.00 0.00 79 1012.8
20260502122517 53 0.0 0.0 0.00 0.00 0.00 79 1012.8
20260502121516 53 0.0 0.0 0.00 0.00 0.00 79 1012.9
20260502120517 52 0.0 0.0 0.00 0.00 0.00 80 1012.9
20260502115517 52 0.0 0.0 0.00 0.00 0.00 82 1012.8
20260502114516 51 0.0 0.0 0.00 0.00 0.00 82 1012.6
20260502113517 50 0.0 0.0 0.00 0.00 0.00 84 1012.7
20260502112518 49 0.0 0.0 0.00 0.00 0.00 87 1012.7
20260502111516 48 0.0 0.0 0.00 0.00 0.00 90 1012.6
20260502110516 47 0.0 0.0 0.00 0.00 0.00 91 1012.5
20260502105516 46 0.0 0.0 0.00 0.00 0.00 90 1012.5
20260502104516 46 0.0 0.0 0.00 0.00 0.00 89 1012.3
20260502103516 46 0.0 0.0 0.00 0.00 0.00 87 1012.1
20260502102516 46 0.0 0.0 0.00 0.00 0.00 86 1012.0
20260502101517 46 0.0 0.0 0.00 0.00 0.00 85 1011.8
20260502100517 46 0.0 0.0 0.00 0.00 0.00 85 1011.8
20260502091516 48 0.0 0.0 0.00 0.00 0.00 83 1011.7
20260502090517 49 0.0 0.0 0.00 0.00 0.00 82 1011.7
20260502071517 51 0.0 0.0 0.00 0.00 0.00 80 1011.7
20260502070537 51 0.0 0.0 0.00 0.00 0.00 82 1011.8
20260502065516 51 0.0 0.0 0.00 0.00 0.00 83 1011.8
20260502064517 51 0.0 0.0 0.00 0.00 0.00 85 1011.8
20260502063516 51 0.0 0.0 0.00 0.00 0.00 87 1011.9
20260502062516 51 0.0 0.0 0.00 0.00 0.00 90 1012.2
20260502060516 51 0.0 0.0 0.00 0.00 0.00 90 1012.2
20260502055516 51 0.0 0.0 0.00 0.00 0.00 90 1012.3
20260502054517 51 0.0 0.0 0.00 0.00 0.00 89 1012.6
20260502053516 51 0.0 0.0 0.00 0.00 0.00 89 1012.1
20260502052517 51 0.0 0.0 0.00 0.00 0.00 89 1012.2
20260502051516 51 0.0 0.0 0.00 0.00 0.00 89 1012.1
20260502050516 51 0.0 0.0 0.00 0.00 0.00 88 1012.2
20260502045517 51 0.0 0.0 0.00 0.00 0.00 88 1012.1
20260502044516 51 0.0 0.0 0.00 0.00 0.00 88 1012.2
20260502043516 51 0.0 0.0 0.00 0.00 0.00 87 1012.1
20260502042515 51 0.0 0.0 0.00 0.00 0.00 87 1012.1
20260502041516 51 0.0 0.0 0.00 0.00 0.00 86 1012.2
20260502040517 51 0.0 0.0 0.00 0.00 0.00 85 1012.0
20260502035537 51 0.0 0.0 0.00 0.00 0.00 84 1012.0
20260502034516 51 0.0 0.0 0.00 0.00 0.00 82 1012.1
20260502033516 51 0.0 0.0 0.00 0.00 0.00 81 1011.8
20260502032517 51 0.0 0.0 0.00 0.00 0.00 80 1011.6
20260502031516 51 0.0 0.0 0.00 0.00 0.00 80 1011.7
20260502030516 51 0.0 0.0 0.00 0.00 0.00 79 1011.5
20260502025517 51 0.0 0.0 0.00 0.00 0.00 78 1012.0
20260502024536 52 0.0 0.0 0.00 0.00 0.00 78 1012.2
20260502023516 52 0.0 0.0 0.00 0.00 0.00 78 1012.1
20260502022516 52 0.0 0.0 0.00 0.00 0.00 78 1012.3
20260502021516 52 0.0 0.0 0.00 0.00 0.00 77 1012.6
20260502020516 52 0.0 0.0 0.00 0.00 0.00 76 1012.6
20260502015517 52 0.0 0.0 0.00 0.00 0.00 76 1011.7
20260502014516 52 0.0 0.0 0.00 0.00 0.00 75 1012.1
20260502013516 52 0.0 0.0 0.00 0.00 0.00 73 1012.2
20260502012516 52 0.0 0.0 0.00 0.00 0.00 72 1012.1
20260502011537 53 0.0 0.0 0.00 0.00 0.00 70 1012.0
20260502010516 53 0.0 0.0 0.00 0.00 0.00 69 1011.9
20260502005516 54 0.0 0.0 0.00 0.00 0.00 68 1011.8
20260502004536 54 0.0 0.0 0.00 0.00 0.00 66 1011.9
20260502003516 55 0.0 0.0 0.00 0.00 0.00 65 1011.7
20260502002516 55 0.0 0.0 0.00 0.00 0.00 64 1011.3
20260502001516 56 0.0 0.0 0.00 0.00 0.00 62 1011.4